Location: Lafig�re
(44.4503°N, 4.0357°E)
Time: 14:27:57
(UTC+00:00)

Vanguard 2 Rocket - Pass Details

Date: 25 January 2021
Orbit: 554 x 3325 km, 32.9° (Epoch: 06 March)

Event Time Altitude Azimuth Distance (km) Brightness Sun altitude
Rises 12:19:28 0° 208° (SSW) 7,207 12.5 26.5°
Reaches altitude 10° 12:26:05 10° 197° (SSW) 5,943 12.8 26.4°
Maximum altitude 12:38:13 23° 153° (SSE) 4,123 11.3 26.0°
Drops below altitude 10° 12:47:09 10° 107° (ESE) 4,295 10.5 25.7°
Sets 12:50:51 0° 94° (E) 4,878 10.5 25.5°
